Regional Weather Roundup
Issued by NWS

Home | Current Version | Previous Version | Graphics & Text | Print | Product List | Glossary On
Versions: 1 2 3 4 5 6 7 8 9 10 11 12 13 14 15 16 17 18 19 20 21 22 23 24 25 26 27 28 29 30 31 32 33 34 35 36 37 38 39 40 41 42 43 44 45 46 47 48 49 50
000
ASUS45 KSLC 010610
RWRUT

UTAH REGIONAL WEATHER ROUNDUP
NATIONAL WEATHER SERVICE SALT LAKE CITY UT
1100 PM MST SAT JAN 31 2015

UTZ001>011-023>025-010700-

NORTHERN UTAH

CITY           SKY/WX    TMP DP  RH WIND       PRES   REMARKS
BRIGHAM CITY   CLEAR     31  27  85 CALM      30.16F
HILL AFB       CLEAR     32  25  74 SW2       30.15R
LOGAN          CLEAR     30  25  81 S5        30.16S WCI  25
OGDEN          CLEAR     30  27  88 CALM      30.15R
PROVO AIRPORT  CLEAR     32  27  80 CALM      30.17R
SALT LAKE CITY CLEAR     32  28  85 N6        30.17R WCI  26
VERNAL         CLEAR     33  30  88 CALM      30.04R
WENDOVER       CLEAR     36  21  55 SW6       30.18S WCI  31
HEBER CITY     CLEAR     28  23  80 CALM      30.14R
WEST JORDAN    CLEAR     30  25  80 CALM      30.18R

$$

UTZ012>022-026-027-010700-

SOUTHERN/CENTRAL UTAH

CITY           SKY/WX    TMP DP  RH WIND       PRES   REMARKS
BLANDING       CLOUDY    31  31 100 CALM      30.10R VSB 1/4
BRYCE CANYON   CLEAR     26  23  88 W7        30.11R WCI  18
CEDAR CITY     CLEAR     29  27  92 CALM      30.11S
DELTA          CLEAR     33  33  99 CALM      30.16R
HANKSVILLE     CLEAR     34  32  93 CALM      30.09R
MILFORD        CLEAR     30  27  88 W3        30.14R
MOAB/CYNLANDS  MOCLDY    37  36  96 W3        30.04R
PRICE          CLEAR     37  19  48 NW10      30.05R WCI  30
ST GEORGE      CLEAR     46  36  66 S7        30.08R
KANAB          CLEAR     37  28  70 N5        30.11R WCI  34

$$

REGIONAL REPORTS     COLORADO/ARIZONA

CITY           SKY/WX    TMP DP  RH WIND       PRES   REMARKS
CRAIG, CO      CLEAR     29  16  58 W14       30.01R WCI  18
GRAND JUNCTION CLEAR     34  32  92 N8        30.03R WCI  27
RIFLE          CLEAR     30  26  85 NE3       30.02R
MONTROSE       PTCLDY    33  32  96 CALM      30.06R
CORTEZ         CLEAR     32  30  92 VRB3      30.00R
PAGE, AZ       NOT AVBL
GRAND CANYON   CLEAR     27  25  92 CALM      30.08R
KINGMAN        CLEAR     44  38  79 SE7       30.04R
FLAGSTAFF      CLEAR     30  27  88 S3        30.04R

$$

REGIONAL REPORTS    NEVADA/IDAHO/WYOMING

CITY           SKY/WX    TMP DP  RH WIND       PRES   REMARKS
LAS VEGAS, NV  CLEAR     55  39  54 SW7       30.01R
ELY            CLEAR     29  19  66 CALM      30.18R
ELKO           CLEAR     29  24  82 CALM      30.21R
POCATELLO, ID  CLOUDY    33  31  92 SW8       30.18R WCI  26
BURLEY         PTCLDY    29  26  89 N3        30.17R
EVANSTON, WY   PTCLDY    25  18  74 SW9       30.11R WCI  15
ROCK SPRINGS   CLEAR     22  17  81 E8        30.06R WCI  12

$$



USA.gov is the U.S. government's official web portal to all federal, state and local government web resources and services.